Terug naar catalogus

TITAN 3C TRANSTAGE DEB

ActiefLEO
NORAD 1716·DEBRIS·🇺🇸 United States

Gelanceerd Oct 15, 1965 vanaf Cape Canaveral Space Force Station

Loading…

Volgende Passages (komende 24 uur)

TLE

VersSource: Space-Track

Epoch: Sep 14, 2026, 09:36 UTC

1 01716U 65082BX  26257.40064908  .00000469  00000-0  92840-4 0  9995
2 01716  32.1889 144.7339 0037637  35.6247 324.6901 14.57649781221521

Volg TITAN 3C TRANSTAGE DEB in realtime met AllMySat

Download on the App Store